Theta_e
327 327 324 318 318 320 318 316 316 318 318 316 315 316 317 318 317 316 317 319 321 321 320 316 312 312 316 317 316 316 317 317 319 321 322 322 323 323 323 323 323 323
327 325 321 320 321 321 317 316 317 317 316 313 312 313 315 317 317 317 318 319 320 320 318 314 309 311 315 317 316 316 318 319 320 321 322 322 322 322 322 323 322 323
326 322 321 323 323 320 317 316 317 316 314 312 310 309 309 313 316 317 318 318 319 319 316 312 308 309 313 315 316 317 319 320 320 321 321 321 321 321 321 322 323 322
324 323 324 324 320 317 315 315 314 314 314 314 311 307 306 309 312 314 314 314 316 316 313 310 307 306 309 313 315 318 320 320 319 319 320 320 320 319 319 321 322 322
325 326 326 322 316 313 313 312 312 313 316 317 313 308 306 306 308 309 308 308 310 312 310 308 306 305 306 308 312 316 317 317 317 317 317 317 318 318 317 318 321 321
326 326 324 319 313 311 312 313 312 312 317 320 316 311 307 305 306 306 305 305 307 308 308 307 306 305 304 305 308 312 313 312 311 311 311 312 315 316 316 316 319 320
325 324 323 317 312 312 313 315 313 312 318 321 319 313 307 305 306 305 305 305 305 306 307 306 305 304 304 304 306 308 309 308 307 307 306 307 310 314 316 316 317 318
324 324 321 316 316 315 314 314 313 313 319 322 320 313 306 304 305 305 305 305 306 306 305 305 304 304 304 304 305 306 307 307 308 307 307 307 307 310 313 314 315 317
323 323 320 317 318 317 312 312 313 314 319 322 320 312 305 304 304 304 305 306 306 305 304 304 305 305 306 306 307 308 308 309 309 309 309 309 308 308 309 310 312 314
322 322 318 315 315 314 312 311 313 316 320 322 320 311 304 304 304 303 304 305 305 305 304 305 306 307 308 309 309 310 309 309 310 309 309 309 309 309 309 309 309 310
323 321 316 312 311 313 312 312 315 319 321 321 319 311 304 304 305 304 305 305 304 305 306 306 307 308 309 310 310 310 309 309 309 310 310 310 311 311 310 310 310 309
322 320 317 316 315 313 312 314 319 320 320 320 318 311 304 304 305 305 305 305 305 306 307 307 308 309 309 310 310 310 309 310 309 310 311 313 313 314 313 313 312 312
322 320 319 319 319 316 314 315 319 320 319 319 318 311 305 303 305 305 305 305 306 307 308 309 309 309 309 309 309 309 309 309 309 310 311 313 314 315 315 314 314 314
322 321 320 318 316 316 314 315 318 320 319 319 318 313 308 305 306 306 307 307 308 308 309 309 309 309 309 309 308 308 308 309 309 310 311 313 314 315 314 314 314 314
322 321 320 317 315 316 315 316 318 320 320 319 318 315 312 312 311 311 311 311 311 312 313 313 313 312 312 311 310 310 309 310 311 312 313 314 314 315 315 315 316 315
322 320 319 317 317 319 319 319 320 320 319 317 317 317 316 316 316 316 316 315 314 315 316 316 316 316 316 316 315 315 314 314 315 316 316 316 316 316 317 317 317 317
321 320 317 316 318 321 321 320 320 320 318 315 316 319 318 316 317 318 317 316 316 316 317 317 317 317 317 317 317 317 317 317 317 318 318 317 317 317 318 318 318 318
321 320 318 317 318 320 321 320 320 320 318 315 317 320 320 318 318 318 318 318 317 316 316 316 317 317 317 317 317 318 317 318 318 318 318 318 318 318 318 318 318 318
321 320 320 320 320 321 320 320 319 319 318 317 318 320 320 320 319 319 319 319 317 316 316 317 317 317 317 317 317 318 318 318 318 318 319 319 319 318 318 319 319 318
322 322 321 321 320 320 320 320 319 319 319 319 319 319 320 320 319 320 320 319 318 318 318 318 318 317 317 318 318 318 318 318 318 319 319 319 319 318 319 319 319 318
321 322 321 321 321 321 321 321 320 320 319 318 318 320 320 320 320 320 320 320 320 320 319 319 319 319 318 318 318 318 318 318 318 319 319 319 319 319 319 319 319 319
318 319 319 320 320 320 320 321 321 321 320 319 318 320 320 320 320 319 319 320 319 319 319 319 319 319 319 319 319 319 319 319 319 318 318 318 318 318 318 318 319 319
314 315 316 317 317 318 318 319 319 319 319 318 318 318 318 318 318 318 318 318 317 317 317 317 316 316 317 317 317 318 318 319 319 319 319 318 318 319 318 318 318 318
310 311 312 313 314 315 316 316 317 317 317 317 317 317 317 317 317 317 317 316 315 315 315 314 314 314 314 314 314 314 315 315 316 316 317 317 318 318 317 317 318 318
309 310 310 311 311 312 313 313 314 315 315 316 316 316 317 317 316 316 316 315 315 314 314 313 312 312 313 313 312 313 313 313 313 313 313 314 314 314 314 314 315 315
308 309 309 309 309 309 310 310 311 312 312 313 313 314 315 315 315 314 314 314 314 314 313 313 312 311 312 313 313 313 314 314 314 313 313 312 311 311 311 311 311 312
Wind_Speed
20 17 15 13 12 11 10 9 7 6 4 3 3 4 5 5 4 4 4 5 6 6 5 4 2 6 9 9 9 8 8 7 7 8 8 8 8 7 6 6 7 8
19 16 14 12 11 11 10 8 6 5 5 4 4 5 6 7 6 5 5 6 7 7 5 3 1 7 10 9 9 9 9 8 8 9 9 9 9 8 7 6 7 8
18 15 13 11 11 12 12 9 7 7 7 6 5 5 7 8 8 7 7 7 8 8 6 2 2 7 11 11 10 10 10 9 9 9 8 9 9 8 7 6 7 10
17 14 12 11 11 13 12 11 10 9 8 7 6 6 8 8 9 9 9 8 9 9 6 4 3 7 11 11 11 11 10 10 9 8 8 8 8 7 7 7 8 10
17 14 13 12 12 13 12 10 9 9 8 6 5 6 7 9 10 11 10 9 9 8 6 6 6 7 10 11 12 11 10 9 9 8 7 8 9 9 8 7 8 9
17 15 14 13 13 12 11 8 8 8 7 5 3 4 6 9 10 11 10 9 9 8 7 7 7 8 10 11 12 11 10 9 8 7 8 9 11 11 10 9 8 9
18 16 14 13 13 13 11 9 11 10 7 5 3 3 6 9 10 10 10 10 9 9 8 8 9 10 12 12 13 12 11 10 8 8 8 8 11 13 13 11 9 9
20 18 15 15 15 14 12 11 13 11 8 7 4 3 6 8 9 10 11 10 9 9 9 10 12 13 14 14 14 13 12 11 10 10 9 9 9 11 13 13 11 11
22 20 17 17 16 14 12 12 13 12 10 9 5 4 8 9 9 11 11 10 10 10 11 14 15 16 16 15 14 13 12 11 10 9 8 8 8 8 10 12 13 12
25 22 20 21 19 15 14 14 13 13 12 10 6 6 9 10 11 13 13 13 13 14 15 16 17 17 15 14 13 11 10 9 8 7 7 7 7 7 8 9 10 11
28 24 22 23 20 19 17 15 13 13 12 10 7 7 10 12 13 15 15 15 16 17 18 18 17 16 15 14 12 10 10 9 7 7 6 6 6 6 7 7 7 7
28 24 23 21 18 17 16 12 12 13 13 11 8 8 11 13 14 15 16 16 17 18 19 18 18 16 15 13 12 10 9 8 7 6 6 6 6 6 6 6 6 7
27 26 26 24 17 15 14 12 12 14 13 11 9 9 12 14 15 15 16 16 16 17 17 17 17 16 14 13 11 10 9 8 7 7 7 7 7 7 7 7 7 8
28 28 27 24 17 15 16 15 14 15 13 11 10 11 12 14 14 15 14 14 14 14 13 13 13 13 13 12 11 10 10 10 9 10 10 10 10 9 9 8 9 9
31 30 27 23 20 20 21 19 18 18 15 12 11 12 13 13 13 12 11 11 12 12 11 11 10 11 11 10 10 11 11 11 11 11 12 12 11 10 10 10 10 11
30 27 24 24 25 23 22 22 21 20 16 13 13 13 14 14 13 11 11 11 11 12 12 11 11 11 10 10 10 10 11 12 12 11 11 12 11 11 12 11 11 12
25 24 22 24 26 23 22 24 24 20 17 15 15 16 15 15 15 13 12 13 13 13 13 13 14 13 13 13 13 13 14 14 14 13 12 12 13 13 14 13 14 14
24 24 22 22 24 22 21 23 22 19 16 16 18 18 17 17 16 14 13 14 14 14 15 15 15 15 15 16 16 17 17 17 17 17 16 16 16 16 17 17 17 17
21 23 21 21 22 19 19 19 18 19 19 18 18 18 17 16 16 15 14 15 16 16 16 16 16 16 16 16 16 17 18 19 20 20 20 20 19 20 20 20 20 20
16 19 19 19 20 20 19 18 17 19 19 16 14 15 15 15 15 15 15 16 17 17 17 17 17 17 17 17 16 16 17 19 20 21 22 22 23 23 23 23 23 23
14 15 15 16 17 18 18 18 17 16 15 14 14 14 14 14 15 15 15 15 16 17 17 17 17 18 19 19 19 18 18 19 21 22 23 24 25 25 25 24 25 25
15 15 15 15 15 15 15 15 14 14 13 14 15 16 15 16 16 16 17 17 17 17 18 17 16 17 19 20 21 22 22 23 23 24 25 26 26 26 26 26 26 26
15 14 14 14 13 13 13 13 12 12 13 14 14 15 15 16 16 17 18 18 17 16 16 16 14 14 14 16 18 21 23 26 27 29 30 31 31 30 29 28 28 28
12 11 11 10 10 10 10 9 10 10 11 11 11 12 13 13 13 14 14 15 14 14 14 15 14 13 13 14 15 15 18 21 24 27 29 31 31 31 30 29 29 29
7 6 6 5 5 6 6 6 6 7 7 7 8 9 9 10 11 11 12 12 13 14 15 17 17 16 15 16 15 15 14 15 17 20 23 24 25 26 26 27 28 29
1 3 4 3 3 3 3 4 5 6 7 7 8 9 10 11 12 12 13 14 15 16 17 19 20 20 19 19 18 17 16 15 16 18 19 20 20 21 22 23 24 25
Wind_Direction
205 211 216 212 206 209 205 193 180 165 159 164 193 210 208 203 193 181 197 219 231 241 254 280 250 186 177 167 164 156 149 150 148 148 149 152 154 154 160 173 180 178
206 211 211 207 206 209 207 195 179 167 171 171 183 208 218 222 219 206 209 217 220 231 245 272 219 177 172 168 165 156 152 157 157 156 158 157 155 156 158 166 166 160
208 209 206 207 210 207 200 188 176 173 170 161 161 180 198 212 220 221 224 222 217 223 229 234 185 171 171 171 170 164 162 168 166 163 166 162 157 158 158 158 156 151
204 203 204 211 211 204 196 186 180 176 166 156 156 165 178 193 208 215 219 217 212 217 212 181 152 159 167 172 174 172 173 176 175 173 175 170 163 163 158 156 159 158
199 197 204 208 205 201 195 189 187 180 172 164 151 156 175 186 196 201 203 202 202 207 196 168 151 146 155 166 175 179 180 180 178 179 187 183 174 167 159 157 164 162
191 196 205 206 201 196 186 191 212 201 187 186 155 149 175 183 192 196 194 193 193 195 188 171 161 154 152 158 167 174 175 172 172 178 190 190 182 174 162 159 167 161
189 195 204 205 201 193 179 196 227 220 205 210 194 164 177 181 191 195 192 191 188 188 186 174 166 161 157 155 157 163 163 160 159 157 159 165 173 178 172 169 174 170
189 191 199 202 202 199 192 206 227 225 217 223 215 179 179 182 191 191 187 189 188 186 181 169 162 158 154 152 152 154 154 151 147 141 134 133 150 171 178 181 184 182
196 197 199 202 204 204 202 213 226 224 221 226 222 187 180 184 188 181 176 179 179 175 169 162 159 155 151 151 151 151 151 149 144 140 138 137 140 154 170 182 190 191
203 201 200 206 210 209 210 216 222 223 221 224 225 198 183 183 182 174 168 170 169 166 163 161 160 158 156 156 156 156 154 152 150 150 152 154 154 157 167 179 189 196
203 200 201 208 212 210 211 214 215 218 221 226 223 200 187 184 180 173 169 170 170 167 165 165 166 166 165 165 165 164 162 162 165 166 167 175 180 180 183 186 192 203
201 196 196 201 202 199 201 206 213 217 222 227 221 198 188 184 180 178 175 175 176 173 171 172 174 175 174 175 174 173 174 179 187 189 189 196 202 201 200 204 209 214
194 189 191 192 187 184 189 199 216 220 222 226 216 196 189 185 183 184 182 179 181 181 180 181 181 183 186 187 187 187 192 203 214 219 220 218 219 220 222 227 229 229
193 187 189 190 186 185 190 197 209 215 219 223 213 195 188 186 184 185 184 182 183 186 189 191 191 194 199 203 204 206 212 221 231 237 239 236 232 233 241 246 245 245
194 190 192 198 201 199 198 200 204 207 209 213 210 198 189 186 182 180 184 188 189 189 192 198 202 203 207 213 218 220 224 231 239 245 247 245 241 242 251 258 257 255
194 191 191 196 199 200 202 203 201 202 204 205 205 202 197 193 188 188 194 200 202 203 205 211 216 217 218 225 229 233 237 241 246 252 252 250 251 256 262 267 269 267
187 183 184 191 197 204 208 202 197 200 204 201 200 203 203 200 198 203 209 211 212 216 220 227 232 233 235 239 242 244 245 246 250 254 255 255 261 268 273 277 277 274
182 180 186 195 202 207 208 200 195 200 204 201 202 206 206 203 204 210 214 214 217 222 229 236 241 244 246 248 249 249 250 251 253 254 255 258 264 270 274 276 276 277
181 184 189 196 199 199 201 200 197 198 203 204 205 206 207 205 206 211 213 214 217 223 231 238 245 249 251 251 251 251 251 253 255 255 255 257 263 270 273 273 274 276
168 179 183 187 191 193 196 200 198 197 201 204 201 201 204 205 207 211 214 217 219 224 230 239 246 251 254 255 254 251 250 250 252 254 255 258 263 268 270 270 272 273
145 160 166 174 184 192 197 202 206 205 204 205 206 206 208 211 212 215 219 222 225 230 234 238 245 251 254 257 257 254 251 249 249 251 253 257 261 264 265 267 269 270
130 140 147 153 166 179 187 194 201 205 203 203 209 213 219 224 226 228 232 234 237 242 244 246 250 253 255 258 259 259 259 257 257 258 259 260 262 264 266 268 268 268
122 129 134 138 149 162 169 172 177 184 188 191 199 208 215 222 226 230 234 238 241 244 245 246 248 249 253 256 259 261 263 263 264 264 265 266 267 267 268 267 266 266
110 115 122 130 140 147 151 156 163 171 179 184 191 200 206 211 215 218 223 229 231 234 239 241 242 243 247 250 253 259 264 266 266 266 265 266 266 267 267 266 266 266
113 117 123 129 139 148 151 158 170 181 189 195 201 209 214 217 218 220 225 231 234 238 243 247 247 247 249 250 250 254 260 267 270 270 269 268 268 269 269 268 268 268
192 198 207 217 227 227 217 214 215 218 222 224 226 230 233 234 235 235 237 241 244 246 249 253 255 256 256 257 256 255 258 264 268 271 275 277 278 278 276 272 270 268